Weather History for Ouarzazate, Morocco

Change the Weather History Date:

Wednesday, May 1, 2013

  Actual Average Record
Temperature  
Mean Temperature 64 °F -  
Max Temperature 80 °F 85 °F - ()
Min Temperature 49 °F 57 °F - ()
Growing Degree Days 14 (Base 50)    
Moisture  
Dew Point 19 °F    
Average Humidity 17    
Maximum Humidity 32    
Minimum Humidity 4    
Precipitation  
Precipitation 0.00 in 0.01 in - ()
Sea Level Pressure  
Sea Level Pressure 29.81 in    
Wind  
Wind Speed 6 mph ()    
Max Wind Speed 17 mph    
Max Gust Speed -    
Visibility 9.8 miles    
Events      
T = Trace of Precipitation, MM = Missing Value Source: Averaged Metar Reports

Daily Weather History Graph

Daily Weather History Graph

Search for Another Location

Airport:

Trip Planner

Search our weather history database for the weather conditions in past years. The results will help you decide how hot, cold, wet, or windy it might be!

Date:

Astronomy

May. 01, 2013 Rise Set
Actual Time 6:43 AM WEST 8:06 PM WEST
Civil Twilight 6:17 AM WEST 8:32 PM WEST
Nautical Twilight 5:47 AM WEST 9:02 PM WEST
Astronomical Twilight 5:15 AM WEST 9:34 PM WEST
Moon 1:04 AM WEST (5/1) 12:06 PM WEST (5/1)
Length of Visible Light 14h 14m
Length of Day
13h 23m
Waning Gibbous, 61% of the Moon is Illuminated
May 1
Waning Gibbous
May 2
Last Quarter
May 10
New
May 18
First Quarter
May 25
Full

Hourly Weather History & Observations

Time (WEST) Temp. Dew Point Humidity Pressure Visibility Wind Dir Wind Speed Gust Speed Precip Events Conditions
12:00 AM 62.6 °F 23.0 °F 22% 29.83 in - WSW 9.2 mph - N/A   Clear
1:00 AM 62 °F 22 °F 12%  in 12 mi WSW 10.4 mph - -  
1:00 AM 60.8 °F 23.0 °F 23% 29.83 in - WSW 10.4 mph - N/A   Clear
2:00 AM 59.0 °F 23.0 °F 25% 29.83 in - West 6.9 mph - N/A   Clear
3:00 AM 59.0 °F 23.0 °F 25% 29.80 in - West 5.8 mph - N/A   Clear
4:00 AM 53 °F 22 °F 18%  in 12 mi Calm Calm - -  
4:00 AM 51.8 °F 21.2 °F 30% 29.80 in - Variable 1.2 mph - N/A   Clear
5:00 AM 53.6 °F 21.2 °F 28% 29.80 in - Variable 2.3 mph - N/A   Clear
6:00 AM 51.8 °F 21.2 °F 30% 29.80 in - Variable 3.5 mph - N/A   Clear
7:00 AM 53 °F 23 °F 19%  in 12 mi WSW 3.5 mph - -  
7:00 AM 50.0 °F 21.2 °F 32% 32.78 in - Variable 3.5 mph - N/A   Clear
8:00 AM 51.8 °F 21.2 °F 30% 29.86 in - Variable 2.3 mph - N/A   Clear
9:00 AM 59.0 °F 23.0 °F 25% 29.86 in - Variable 2.3 mph - N/A   Clear
10:00 AM 64 °F 20 °F 10%  in 12 mi West 3.5 mph - -  
10:00 AM 64.4 °F 21.2 °F 19% 29.86 in - Variable 3.5 mph - N/A   Clear
11:00 AM 68.0 °F 19.4 °F 16% 29.86 in - Variable 2.3 mph - N/A   Clear
12:00 PM 71.6 °F 19.4 °F 14% 29.86 in - Variable 2.3 mph - N/A   Clear
1:00 PM 74 °F 17 °F 5%  in 12 mi SE 1.2 mph - -  
1:00 PM 75.2 °F 15.8 °F 11% 29.83 in - Variable 1.2 mph - N/A   Clear
2:00 PM 77.0 °F 15.8 °F 10% 29.80 in - ENE 8.1 mph - N/A   Clear
3:00 PM 78.8 °F 10.4 °F 7% 29.77 in 6.2 mi Variable 3.5 mph - N/A   Partly Cloudy
4:00 PM 80 °F -1 °F 4%  in 12 mi South 10.4 mph - -   Scattered Clouds
4:00 PM 80.6 °F -0.4 °F 4% 29.77 in 6.2 mi South 10.4 mph - N/A   Partly Cloudy
5:00 PM 78.8 °F 8.6 °F 7% 29.80 in 6.2 mi ESE 5.8 mph - N/A   Partly Cloudy
6:00 PM 80.6 °F 6.8 °F 6% 29.74 in 6.2 mi Variable 2.3 mph - N/A   Partly Cloudy
7:00 PM 79 °F 15 °F 4%  in 12 mi South 9.2 mph - -   Scattered Clouds
7:00 PM 78.8 °F 15.8 °F 9% 29.74 in - South 8.1 mph - N/A   Partly Cloudy
8:00 PM 73.4 °F 23.0 °F 15% 29.77 in 6.2 mi WNW 17.3 mph - N/A   Partly Cloudy
9:00 PM 68.0 °F 26.6 °F 21% 29.83 in - West 16.1 mph - N/A   Clear
10:00 PM 66 °F 27 °F 13%  in 12 mi West 11.5 mph - -  
10:00 PM 66.2 °F 26.6 °F 23% 29.83 in - West 11.5 mph - N/A   Clear
11:00 PM 64.4 °F 28.4 °F 26% 29.86 in - WSW 8.1 mph - N/A   Clear